Flag for Germany Weather past 2 weeks in Weimar, Thuringia, Germany

39 °F

Partly sunny.

Feels Like: 32 °F
Forecast: 33 / 46 °F
Wind: 10 mph from Northeast

Location: Erfurt-Bindersleben

Current Time: Oct 10, 2015 at 9:37:37 AM

Latest Report: Oct 10, 2015 at 9:20 AM

Visibility: N/A

Pressure: 30.15 "Hg

Humidity: 75%

Dew point: 32 °F

Location of WeimarLocation

Historic Weather in Weimar — Graph


Weimar temperature yesterday

Maximum temperature yesterday: 57 °F (at 12:20 PM)
Minimum temperature yesterday: 46 °F (at 10:50 PM)
Average temperature yesterday: 53 °F

Past Weeks' High & Low Weather Summary

High70 °F (Oct 3, 3:50 PM)100% (Sep 28, 6:20 AM)30.63 "Hg (Sep 28, 6:20 AM)
Low34 °F (Oct 2, 5:20 AM)41% (Oct 1, 2:20 PM)29.71 "Hg (Oct 6, 4:20 PM)
Average53 °F76%30.21 "Hg
* Reported Sep 25 8:20 AM — Oct 10 8:20 AM, Weimar, Weather by CustomWeather, © 2015

Note: Actual official high and low records may vary slightly from our data, if they occured in-between our weather recording intervals... More about our weather records


Weimar weather history for previous 24 hours

Time TempWeatherWind HumidityBarometerVisibility
8:20 AM
Sat, Oct 10
39 °FPassing clouds.8 mph93%30.15 "HgN/A
7:50 AM41 °FPassing clouds.8 mph87%30.15 "HgN/A
7:20 AM43 °FPassing clouds.7 mph87%30.15 "HgN/A
6:50 AM43 °FPassing clouds.7 mph81%30.15 "HgN/A
6:20 AM43 °FPassing clouds.7 mph81%30.15 "HgN/A
5:50 AM43 °FPassing clouds.7 mph81%30.15 "HgN/A
5:20 AM45 °FPassing clouds.9 mph81%30.15 "HgN/A
4:50 AM45 °FPartly cloudy.8 mph81%30.15 "HgN/A
4:20 AM45 °FLow clouds.8 mph87%30.15 "Hg5 mi
3:50 AM45 °FDrizzle. Low clouds.9 mph93%30.15 "Hg4 mi
3:20 AM45 °FLow clouds.8 mph93%30.15 "Hg4 mi
2:50 AM45 °FFog.8 mph93%30.15 "Hg3 mi
2:20 AM45 °FFog.8 mph93%30.15 "Hg3 mi
1:50 AM45 °FFog.10 mph100%30.15 "Hg2 mi
1:20 AM45 °FFog.9 mph100%30.15 "Hg1 mi
12:50 AM46 °FFog.9 mph93%30.15 "Hg1 mi
12:20 AM46 °FDrizzle. Fog.8 mph93%30.15 "Hg1 mi
11:20 PM
Fri, Oct 9
46 °FDrizzle. Fog.9 mph100%30.18 "Hg1 mi
10:50 PM46 °FDrizzle. Fog.10 mph100%30.18 "Hg1 mi
10:20 PM48 °FDrizzle. Fog.9 mph94%30.18 "Hg1 mi
9:50 PM48 °FFog.10 mph94%30.15 "Hg2 mi
9:20 PM48 °FFog.12 mph94%30.15 "Hg3 mi
8:50 PM50 °FFog.12 mph94%30.15 "Hg3 mi
8:20 PM50 °FLow clouds.9 mph94%30.15 "Hg4 mi
7:50 PM50 °FLow clouds.8 mph94%30.15 "Hg4 mi
7:20 PM50 °FLow clouds.8 mph94%30.15 "Hg4 mi
6:50 PM52 °FLow clouds.10 mph88%30.15 "Hg4 mi
6:20 PM52 °FLow clouds.7 mph94%30.15 "Hg5 mi
5:50 PM52 °FBroken clouds.9 mph94%30.12 "HgN/A
5:20 PM54 °FPartly sunny.10 mph88%30.12 "HgN/A
4:20 PM55 °FBroken clouds.6 mph88%30.12 "HgN/A
3:50 PM55 °FPartly sunny.9 mph88%30.12 "HgN/A
3:20 PM55 °FPartly sunny.9 mph88%30.12 "HgN/A
2:50 PM55 °FPartly sunny.7 mph88%30.12 "HgN/A
2:20 PM57 °FPartly sunny.7 mph82%30.12 "HgN/A
1:50 PM57 °FPartly sunny.7 mph88%30.12 "HgN/A
1:20 PM57 °FBroken clouds.5 mph82%30.12 "HgN/A
12:50 PM57 °FPartly sunny.2 mph82%30.12 "HgN/A
12:20 PM57 °FBroken clouds.1 mph88%30.12 "Hg4 mi
11:50 AM55 °FDrizzle. Broken clouds.3 mph94%30.12 "Hg4 mi
11:20 AM55 °FFog.6 mph94%30.12 "Hg3 mi
10:50 AM55 °FFog.3 mph94%30.12 "Hg2 mi
10:20 AM54 °FDrizzle. Fog.2 mph100%30.12 "Hg2 mi
9:50 AM54 °FDrizzle. Fog.5 mph100%30.12 "Hg1 mi
9:20 AM54 °FDrizzle. Fog.3 mph100%30.12 "Hg1 mi
Weather by CustomWeather, © 2015

See weather overviewHow to use our weather pages